sat.trackr.live / text

‹ back to catalog

QIANFAN-89

NORAD 63175 · 2025-046S

PAYLOAD ACTIVE UNKNOWN

§ Identity

Operator
Country
PRC
Launch date
2025-03-11
Launch site
WSC
Launch vehicle
Mass (kg)
RCS (m²)

External: N2YO · Heavens-Above · Gunter

§ Orbital elements

Epoch: 2026-05-25T04:29:03.939360Z

Period
106.59 min
Inclination
88.9691°
Eccentricity
0.0016956
Mean motion
13.51012710 rev/d
Perigee alt
1,055.9 km
Apogee alt
1,081.2 km
Semi-major
7,446.7 km
B*
1.9495e-5
RAAN
303.0961°
Arg perigee
20.2366°
Mean anomaly
339.9453°
Rev number
6,947

§ Raw data

QIANFAN-891 63175U 25046S   26145.18685115  .00000025  00000+0  19495-4 0  99902 63175  88.9691 303.0961 0016956  20.2366 339.9453 13.51012710 69476

JSON: /api/v1/satellites/63175 · /tle

For live sub-satellite position, see the globe view (requires WebGL).

§ Visibility from observer

Set your observer location to see the next 7 days of passes ≥ 10°. The values pass through the URL so the page stays shareable.

No JS? Fill the form by hand. The geolocation button needs JavaScript.